Location: Chervonnoye
(48.6000°N, 34.4000°E)
Time: 13:52:21
(UTC+00:00)

deb Kosmos-2237 - Pass Details

Date: 24 June 2021
Orbit: 850 x 1045 km, 71.0° (Epoch: 25 July)

Event Time Altitude Azimuth Distance (km) Brightness Sun altitude
Rises 20:03:30 0° 261° (W) 3,635 ? -14.5°
Reaches altitude 10° 20:06:44 10° 278° (W) 2,728 ? -14.7°
Maximum altitude 20:11:21 21° 325° (NW) 2,113 ? -15.0°
Drops below altitude 10° 20:16:08 10° 11° (NNE) 2,822 ? -15.3°
Sets 20:19:34 0° 28° (NNE) 3,799 ? -15.5°
